Location: Sternwarte ZA, Rosenfeld-Brittheim
(48.2889°N, 8.6789°E)
Time: 17:49:56
(UTC+02:00)

ISS - Pass Details

Date: 24 May 2020
Orbit: 417 x 420 km, 51.6° (Epoch: 26 May)

Event Time Altitude Azimuth Distance (km) Brightness Sun altitude
Rises 01:31:18 0° 289° (WNW) 2,369 0.3 -20.9°
Reaches altitude 10° 01:33:34 10° 278° (W) 1,502 -0.9 -20.9°
Enters shadow 01:33:54 12° 276° (W) 1,383 -1.1 -20.8°
